This demonstration page uses our WeatherBlox Daily Observations layout. Learn more.

Left ArrowRight Arrow

Hourly Observations for January 23, 2022

Temp ( °F °C ) Dew Point ( °F °C ) Humidity (%) Winds ( mph kmh ) Pressure ( in mb ) Visibility ( mi km ) Precip ( " mm )
12:52 am 00:52 Cloudy 44 6.7 33 0.6 65 65 NNW 21 33 29.98 1015 10 16 0.00 0.00
1:52 am 01:52 Cloudy with Light Rain 41 5 33 0.6 73 73 NNW 22 35 29.99 1016 10 16 0.00 0.00
2:52 am 02:52 Cloudy 37 2.8 30 -1.1 76 76 N 22 35 30.04 1017 10 16 0.00 0.00
3:44 am 03:44 Partly Cloudy 30 -1.1 24 -4.4 79 79 NNW 22 35 30.12 1020 10 16 0.00 0.00
3:52 am 03:52 Partly Cloudy 29 -1.7 23 -5 78 78 NNW 22 35 30.09 1019 10 16 0.00 0.00
4:06 am 04:06 Mostly Cloudy 29 -1.7 22 -5.6 75 75 N 20 31 30.13 1020 10 16 0.00 0.00
4:52 am 04:52 Mostly Clear 25 -3.9 18 -7.8 75 75 N 22 35 30.12 1020 10 16 0.00 0.00
5:23 am 05:23 Mostly Cloudy 22 -5.6 16 -8.9 78 78 NNW 18 30 30.20 1023 10 16 0.00 0.00
5:52 am 05:52 Mostly Cloudy 21 -6.1 14 -10 74 74 NNE 14 22 30.16 1021 10 16 0.00 0.00
6:52 am 06:52 Mostly Cloudy 19 -7.2 12 -11.1 74 74 N 18 30 30.19 1022 10 16 0.00 0.00
7:52 am 07:52 Mostly Cloudy 18 -7.8 11 -11.7 74 74 N 15 24 30.21 1023 10 16 0.00 0.00
8:52 am 08:52 Mostly Cloudy 16 -8.9 9 -12.8 74 74 NNW 10 17 30.22 1023 10 16 0.00 0.00
9:20 am 09:20 Mostly Cloudy 17 -8.3 9 -12.8 70 70 N 9 15 30.27 1025 10 16 0.00 0.00
9:52 am 09:52 Mostly Cloudy 19 -7.2 10 -12.2 68 68 N 7 11 30.21 1023 10 16 0.00 0.00
10:52 am 10:52 Mostly Cloudy 20 -6.7 9 -12.8 62 62 Calm 30.19 1022 10 16 0.00 0.00
11:52 am 11:52 Mostly Cloudy 22 -5.6 10 -12.2 60 60 Calm 30.18 1022 10 16 0.00 0.00
12:52 pm 12:52 Cloudy 22 -5.6 11 -11.7 63 63 S 5 7 30.13 1020 10 16 0.00 0.00
1:27 pm 13:27 Cloudy 23 -5 11 -11.7 60 60 SW 7 11 30.15 1021 10 16 0.00 0.00
1:52 pm 13:52 Cloudy 24 -4.4 11 -11.7 57 57 SSW 8 13 30.08 1019 10 16 0.00 0.00
2:52 pm 14:52 Cloudy 25 -3.9 14 -10 63 63 SE 10 17 30.01 1016 10 16 0.00 0.00
3:52 pm 15:52 Cloudy 27 -2.8 16 -8.9 63 63 S 14 22 29.97 1015 10 16 0.00 0.00
4:37 pm 16:37 Cloudy 27 -2.8 17 -8.3 66 66 S 15 24 29.97 1015 10 16 0.00 0.00
4:52 pm 16:52 Mostly Cloudy 27 -2.8 17 -8.3 66 66 SSE 12 19 29.94 1014 10 16 0.00 0.00
5:52 pm 17:52 Mostly Cloudy 26 -3.3 18 -7.8 71 71 SSE 12 19 29.91 1013 10 16 0.00 0.00
6:52 pm 18:52 Cloudy 27 -2.8 19 -7.2 72 72 S 12 19 29.88 1012 10 16 0.00 0.00
7:52 pm 19:52 Mostly Cloudy 28 -2.2 20 -6.7 72 72 S 10 17 29.85 1011 10 16 0.00 0.00
8:52 pm 20:52 Clear 28 -2.2 19 -7.2 69 69 S 10 17 29.81 1010 10 16 0.00 0.00
9:52 pm 21:52 Mostly Cloudy 28 -2.2 21 -6.1 75 75 SSE 10 17 29.78 1008 10 16 0.00 0.00
10:52 pm 22:52 Mostly Cloudy 29 -1.7 21 -6.1 72 72 SSE 8 13 29.75 1008 10 16 0.00 0.00
11:52 pm 23:52 Mostly Cloudy 29 -1.7 22 -5.6 75 75 SE 8 13 29.72 1006 10 16 0.00 0.00

Powered by AerisWeather